Flagstaff, AZ

9:22 PM MST on September 24, 2016 (GMT -0700)
Flagstaff Pulliam

Weather History for KFLG - February, 2014

Change the Weather History Date:

Tuesday, February 25, 2014

  Actual Average Record
Temperature  
Mean Temperature 41 °F 34 °F  
Max Temperature 57 °F 46 °F 70 °F (1986)
Min Temperature 25 °F 21 °F -10 °F (1919)
Degree Days  
Heating Degree Days 24 31  
Month to date heating degree days 710 828  
Since 1 July heating degree days 4529 4744  
Cooling Degree Days 0 0  
Month to date cooling degree days 0 0  
Year to date cooling degree days 0 0  
Moisture  
Dew Point 19 °F    
Average Humidity 47    
Maximum Humidity 74    
Minimum Humidity 19    
Precipitation  
Precipitation 0.00 in 0.08 in 0.84 in (1958)
Month to date precipitation 0.12 1.92  
Year to date precipitation 0.29 3.97  
Snow  
Snow 0.00 in 0.60 in 12.40 in (1998)
Month to date snowfall 2.1 18.8  
Since 1 July snowfall 33.5 71.1  
Snow Depth 0.00 in    
Sea Level Pressure  
Sea Level Pressure 30.01 in    
Wind  
Wind Speed 7 mph (SW)    
Max Wind Speed 23 mph    
Max Gust Speed 28 mph    
Visibility 10 miles    
Events      
T = Trace of Precipitation, MM = Missing Value Source: NWS Daily Summary

Daily Weather History Graph

Daily Weather History Graph

Search for Another Location

Airport or City:

Trip Planner

Search our weather history database for the weather conditions in past years. The results will help you decide how hot, cold, wet, or windy it might be!

Date:

Astronomy

Feb. 25, 2014 Rise Set
Actual Time 7:01 AM MST 6:18 PM MST
Civil Twilight 6:35 AM MST 6:44 PM MST
Nautical Twilight 6:06 AM MST 7:13 PM MST
Astronomical Twilight 5:36 AM MST 7:43 PM MST
Moon 3:53 AM MST 2:34 PM MST
Length of Visible Light 12h 08m
Length of Day
11h 17m
Waning Crescent, 17% of the Moon is Illuminated
Feb 25
Waning Crescent
Mar 1
New
Mar 8
First Quarter
Mar 16
Full
Mar 23
Last Quarter

Hourly Weather History & Observations

Time (MST) Temp. Windchill Dew Point Humidity Pressure Visibility Wind Dir Wind Speed Gust Speed Precip Events Conditions
12:57 AM 27.0 °F - 16.0 °F 63% 30.04 in 10.0 mi Calm Calm - N/A   Clear
1:57 AM 27.0 °F - 16.0 °F 63% 30.03 in 10.0 mi Calm Calm - N/A   Clear
2:57 AM 26.1 °F - 16.0 °F 66% 30.01 in 10.0 mi Calm Calm - N/A   Clear
3:57 AM 26.1 °F - 17.1 °F 69% 30.00 in 10.0 mi Calm Calm - N/A   Clear
4:57 AM 28.0 °F - 17.1 °F 63% 29.99 in 10.0 mi Calm Calm - N/A   Clear
5:57 AM 26.1 °F - 17.1 °F 69% 30.02 in 10.0 mi Calm Calm - N/A   Clear
6:57 AM 25.0 °F - 17.1 °F 72% 30.07 in 10.0 mi Calm Calm - N/A   Clear
7:57 AM 32.0 °F - 19.9 °F 61% 30.08 in 10.0 mi Calm Calm - N/A   Clear
8:57 AM 45.0 °F - 19.0 °F 36% 30.03 in 10.0 mi Calm Calm - N/A   Clear
9:57 AM 51.1 °F - 19.0 °F 28% 30.03 in 10.0 mi SW 8.1 mph - N/A   Clear
10:57 AM 52.0 °F - 18.0 °F 26% 30.04 in 10.0 mi SW 10.4 mph - N/A   Clear
11:57 AM 53.1 °F - 19.0 °F 26% 30.02 in 10.0 mi South 16.1 mph - N/A   Clear
12:57 PM 55.9 °F - 18.0 °F 23% 29.98 in 10.0 mi SSW 17.3 mph 23.0 mph N/A   Clear
1:57 PM 55.0 °F - 19.0 °F 24% 29.97 in 10.0 mi SSW 16.1 mph 24.2 mph N/A   Clear
2:57 PM 57.0 °F - 16.0 °F 20% 29.96 in 10.0 mi WSW 16.1 mph 27.6 mph N/A   Clear
3:57 PM 53.1 °F - 17.1 °F 24% 29.97 in 10.0 mi SW 15.0 mph - N/A   Clear
4:57 PM 52.0 °F - 16.0 °F 24% 29.98 in 10.0 mi SW 16.1 mph - N/A   Clear
5:57 PM 50.0 °F - 21.0 °F 32% 29.99 in 10.0 mi SW 10.4 mph - N/A   Clear
6:57 PM 46.0 °F 40.6 °F 23.0 °F 40% 30.03 in 10.0 mi SSW 11.5 mph - N/A   Clear
7:57 PM 44.1 °F 38.6 °F 24.1 °F 45% 30.02 in 10.0 mi SW 10.4 mph - N/A   Clear
8:57 PM 37.9 °F 34.4 °F 23.0 °F 55% 30.00 in 10.0 mi WSW 4.6 mph - N/A   Clear
9:57 PM 37.0 °F 32.4 °F 23.0 °F 57% 30.00 in 10.0 mi SW 5.8 mph - N/A   Clear
10:57 PM 34.0 °F - 23.0 °F 64% 30.01 in 10.0 mi Calm Calm - N/A   Clear
11:57 PM 30.0 °F 25.2 °F 21.0 °F 69% 30.01 in 10.0 mi SW 4.6 mph - N/A   Clear